轨道通信卫星FM32星 (ORBCOMM FM32)

导读 | 豆包AI

ORBCOMM FM 32是ORBCOMM(轨道通信公司)低轨卫星星座中的成员,1999年12月4日发射入轨。该卫星隶属于全球近地轨道小型卫星移动通信系统,主要提供全球短数据通信、资产跟踪与定位服务,支持远程监测、物联网连接等应用,是早期低轨卫星通信网络布局的重要组成,为偏远地区数据传输提供了低成本解决方案。

Basic Information
目录编号:
25982
目录名称:
ORBCOMM FM 32
国际标识:
1999-065C
轨道中心:
EARTH
卫星名称:
轨道通信卫星FM32星
卫星全名:
轨道通信卫星FM32星 (ORBCOMM FM32)
卫星状态:
在轨 (已飞行9597 天)
发射日期:
1999-12-04 UTC
国别 :
(ORB)
星等 :
--
Orbit Information
数据来源 国际轨道数据 AOE轨道数据
星历时间 2026-03-14T04:10:21+0800
12小时前
查看轨道信息
2026-03-14T03:00:00+0800
13小时前
查看轨道信息
半长轴 7146.647km 7146.663km
偏心率 0.0005531 0.0005961
轨道倾角 45.015° 45.012°
近地点辐角 300.971° 298.132°
升交点赤经 264.500° 264.734°
平近点角 59.059° 168.924°
近地点 764.557km 764.265km
远地点 772.463km 772.787km
周期 100.210分钟 100.211分钟
每日圈数 14.369753 14.369704
Detailed Information
固有亮度:
8
最大亮度:
6.9
平衡模式:
三轴稳定
覆盖范围:
全球
运营商:
轨道通信公司
运营商所在国:
美国
制造商(研发单位):
轨道ATK公司
制造商所在国:
美国
使用方式:
暂无
Satellite Introduction
轨道通信FM(Orbcomm FM)是一系列低地球轨道通信卫星,由美国卫星通信公司 Orbcomm运营。 截至2015年12月,已有63颗此类卫星绕地球运行。该卫星仍在工作。
2D Orbit Map
3D Orbit Map
Orbit Altitude Analysis Chart
Orbit Inclination Analysis Chart
Orbit Comprehensive Analysis Chart
View Comprehensive Chart